Back to catalog

STARLINK-36499

AliveCommunicationsVLEO
NORAD 67359·PAYLOAD·🇺🇸 United States

Launched Jan 9, 2026 from Cape Canaveral Space Force Station

Loading…

Next Passes (next 24 hours)

TLE

FreshSource: CelesTrak SupGP

Epoch: Sep 14, 2026, 15:15 UTC

1 67359C 26003AB  26257.63590278 -.00027214  00000+0 -98604-3 0  2577
2 67359  43.0017 240.4218 0001559 271.9122 168.8286 15.27579926    15

Track STARLINK-36499 in real time with AllMySat

Download on the App Store